Temp
6 6 6 7 7 7 7 7 7 8 8 8 9 9 9 8 8 8 8 8 8 8 7 7 7 7 7 7 7 8 8 9 9 9 9 9 8 9 9 10 10 10 10 10 10
6 6 6 6 6 6 7 7 7 7 8 8 8 9 9 8 8 8 8 7 7 7 7 7 6 6 6 6 6 7 8 9 8 8 8 8 7 7 9 9 9 9 9 10 10
5 5 6 6 6 6 6 7 7 7 7 7 8 8 8 8 8 8 8 7 7 6 7 6 6 6 5 6 6 6 8 8 7 8 7 7 7 7 8 9 9 9 9 9 10
5 5 5 5 6 5 6 6 6 7 7 7 7 7 8 8 6 8 8 8 7 6 6 6 6 6 6 6 6 6 6 7 7 8 8 7 7 9 9 9 9 9 10 10 10
4 5 5 5 5 5 5 5 6 6 6 7 7 7 7 8 8 7 8 7 6 6 6 6 6 6 6 5 7 7 6 7 7 8 8 8 8 8 8 10 10 10 10 10 10
4 4 4 4 5 5 5 5 5 5 6 6 6 7 7 7 7 6 8 7 7 6 6 6 6 6 6 6 6 6 7 7 8 8 8 8 8 8 8 9 10 10 9 9 9
3 3 4 4 4 4 4 4 5 4 5 5 6 6 6 8 7 6 7 7 7 6 6 6 5 6 6 6 6 6 6 6 8 8 8 8 9 9 7 8 9 10 10 9 9
3 3 3 4 4 4 4 4 4 4 4 5 5 5 6 7 7 7 6 7 7 7 6 5 5 5 6 6 6 6 5 7 8 8 7 8 10 8 8 7 7 8 8 8 8
3 3 3 3 3 3 3 3 3 3 3 4 4 3 5 6 7 6 7 7 7 6 6 5 5 5 6 5 5 5 7 8 7 7 7 8 9 8 7 7 6 7 7 8 8
2 3 3 3 3 3 3 3 3 3 2 2 2 2 4 6 7 6 7 7 7 7 6 5 4 5 5 5 7 8 7 6 7 7 7 7 7 7 7 7 6 7 7 8 8
2 2 2 2 2 -0 2 2 2 -0 2 3 4 5 3 5 5 6 6 6 6 5 5 5 3 4 8 7 6 5 6 7 7 5 5 6 7 7 7 6 7 8 7 7 8
2 2 2 2 1 0 -1 1 3 1 1 3 3 3 3 3 4 5 6 5 5 6 4 3 3 5 5 5 4 4 5 6 6 5 5 6 6 7 7 7 6 8 8 8 7
1 2 2 1 1 1 0 1 -0 -1 -1 -1 2 3 3 2 3 3 5 5 5 5 4 5 5 4 5 5 4 4 5 5 6 5 4 5 6 8 7 8 8 8 8 7 7
1 1 1 1 1 1 -0 0 -2 -2 -2 -1 -1 1 1 1 1 2 3 4 4 4 3 4 5 4 5 4 4 5 4 5 4 4 7 5 9 8 6 7 7 7 7 7 6
-1 0 -0 0 1 0 0 -0 -1 -3 -2 -1 -0 0 2 3 2 3 3 3 3 3 3 4 4 3 3 5 4 4 4 3 4 4 5 6 5 8 7 3 5 6 5 5 5
-3 -1 -2 -1 0 0 -0 -1 -1 -3 -2 -1 -1 -1 -2 0 0 0 3 2 2 1 2 3 3 2 3 3 3 3 3 2 2 4 6 6 7 8 9 5 4 5 5 5 5
-5 -4 -3 -3 -0 -0 -1 -1 -2 -3 -2 -0 -1 -1 -1 -1 -1 -1 2 2 1 1 1 1 1 1 2 2 3 2 3 5 5 5 7 7 7 8 6 5 5 5 5 5 5
-7 -6 -4 -4 -2 -2 -1 -1 -2 -2 -2 -0 -1 -0 -1 -1 -1 -1 -0 1 0 2 4 3 3 1 0 2 2 2 3 5 4 8 9 5 5 7 5 5 4 4 4 4 4
-9 -8 -6 -3 -3 -2 -2 -1 -2 -1 -1 -0 -1 -1 -1 -1 -0 -1 0 1 1 1 3 4 4 3 1 1 2 -0 1 2 1 2 3 6 5 3 3 4 3 3 3 2 3
-10 -9 -7 -4 -4 -3 -2 -2 -2 -1 -1 -1 -1 -0 -1 -0 0 -0 0 1 1 0 1 2 2 2 0 0 1 1 0 -1 -2 2 4 7 7 8 1 3 2 2 2 3 3
-11 -10 -7 -6 -7 -4 -5 -2 -2 -1 -1 -1 0 -0 0 1 1 0 1 1 0 1 1 1 2 -1 -0 0 2 1 -0 -0 0 1 4 6 8 4 1 2 2 2 2 2 2
-11 -11 -9 -9 -9 -7 -5 -3 -2 -1 -2 -1 0 1 1 1 1 0 2 1 1 2 1 0 1 1 0 -0 1 2 1 0 0 -1 1 3 4 2 1 0 1 2 2 2 1
-11 -10 -11 -10 -10 -6 -6 -4 -2 -1 -2 -2 -0 0 0 0 -0 1 1 1 2 2 -0 -0 -1 -1 -1 -2 -2 -1 -0 1 0 1 1 2 2 2 1 1 1 1 1 0 0
-12 -12 -11 -10 -9 -7 -6 -4 -3 -2 -1 -1 1 -0 -1 -0 0 1 -0 0 1 0 -1 0 -0 1 3 3 1 -2 -1 -0 0 -0 1 1 2 1 0 -0 -0 -0 -1 -1 -1
-12 -11 -10 -9 -8 -8 -6 -5 -3 -2 -2 -2 -1 -1 -0 -1 -0 -0 -0 -0 -1 -0 -1 -2 -2 -2 -1 -1 -1 -0 -1 -1 -0 -0 1 2 2 0 -0 -1 -2 -1 -2 -2 -2
-12 -11 -10 -9 -8 -8 -6 -5 -3 -2 -2 -2 -1 -0 -0 -0 2 -1 -0 -0 -1 -2 -3 -3 -3 -3 -2 -3 -4 -3 -1 -1 -1 -0 0 1 1 1 -2 -3 -2 -2 -2 -2 -3
-11 -10 -9 -8 -7 -8 -7 -4 -4 -2 -2 -1 -0 -0 -2 -1 -1 -2 -0 0 -2 -2 -2 -3 -3 -4 -3 -4 -5 -4 -3 -2 -2 -2 -1 -1 0 -1 -2 -2 -3 -3 -3 -3 -4
Height
3116 3119 3120 3122 3124 3127 3128 3130 3132 3134 3135 3134 3135 3136 3136 3136 3136 3133 3133 3133 3132 3133 3133 3134 3135 3136 3138 3138 3139 3140 3144 3143 3144 3145 3145 3143 3144 3144 3146 3147 3147 3146 3146 3148 3149
3108 3111 3114 3116 3118 3119 3123 3123 3125 3128 3131 3131 3130 3132 3132 3132 3133 3131 3129 3130 3129 3129 3131 3132 3132 3134 3136 3137 3136 3137 3139 3140 3140 3141 3141 3141 3141 3141 3144 3146 3146 3146 3146 3147 3148
3100 3103 3104 3109 3111 3113 3115 3117 3119 3121 3123 3126 3127 3127 3128 3127 3129 3128 3126 3126 3126 3126 3128 3130 3131 3132 3133 3133 3134 3134 3134 3137 3135 3136 3136 3137 3138 3138 3140 3143 3145 3145 3145 3145 3146
3090 3094 3097 3099 3103 3105 3107 3110 3112 3114 3116 3119 3122 3123 3123 3124 3128 3124 3124 3124 3123 3123 3125 3127 3128 3129 3131 3131 3131 3130 3130 3131 3132 3131 3132 3133 3133 3133 3134 3137 3138 3140 3141 3142 3143
3080 3084 3088 3091 3094 3097 3099 3102 3104 3107 3109 3112 3114 3118 3118 3120 3121 3121 3120 3121 3120 3121 3121 3123 3125 3126 3127 3128 3128 3125 3127 3126 3127 3127 3128 3128 3129 3129 3128 3131 3133 3133 3135 3136 3137
3070 3073 3077 3082 3085 3088 3091 3093 3096 3099 3101 3104 3107 3110 3111 3114 3115 3115 3115 3116 3116 3117 3117 3118 3120 3122 3123 3123 3124 3122 3122 3122 3122 3123 3124 3124 3125 3123 3126 3124 3127 3129 3128 3128 3130
3060 3064 3068 3071 3076 3080 3082 3084 3087 3089 3092 3095 3098 3100 3100 3109 3108 3108 3111 3111 3112 3112 3112 3114 3116 3118 3118 3119 3118 3119 3119 3119 3118 3120 3119 3120 3120 3118 3121 3120 3122 3122 3122 3123 3125
3046 3052 3057 3062 3066 3070 3074 3076 3079 3079 3082 3086 3088 3090 3085 3101 3100 3102 3103 3106 3106 3106 3108 3108 3110 3112 3114 3114 3114 3116 3115 3116 3115 3115 3115 3116 3117 3116 3115 3117 3118 3117 3118 3119 3120
3033 3038 3044 3050 3056 3061 3065 3067 3068 3069 3072 3075 3077 3080 3077 3088 3093 3095 3095 3099 3100 3100 3101 3104 3105 3107 3108 3111 3113 3110 3110 3111 3112 3111 3113 3113 3113 3113 3111 3112 3113 3113 3114 3115 3116
3020 3024 3031 3036 3042 3049 3054 3056 3055 3058 3061 3062 3064 3075 3073 3079 3082 3085 3087 3090 3092 3093 3095 3097 3099 3100 3103 3105 3104 3106 3106 3107 3108 3108 3106 3108 3108 3109 3109 3110 3108 3109 3109 3110 3111
3009 3013 3019 3024 3029 3031 3036 3039 3045 3043 3041 3043 3051 3060 3064 3070 3075 3077 3079 3081 3083 3086 3087 3088 3093 3092 3092 3095 3100 3100 3102 3103 3104 3104 3102 3103 3101 3103 3104 3103 3102 3103 3102 3103 3104
2995 3004 3009 3016 3019 3018 3019 3019 3027 3037 3034 3033 3042 3044 3055 3061 3065 3068 3072 3075 3074 3078 3081 3081 3081 3086 3090 3091 3093 3094 3096 3097 3098 3097 3097 3097 3094 3093 3096 3096 3097 3096 3097 3096 3097
2976 2989 2997 3005 3007 3008 3006 3013 3023 3031 3029 3025 3027 3032 3046 3053 3053 3057 3063 3064 3067 3071 3071 3072 3077 3081 3082 3083 3086 3088 3090 3093 3094 3094 3091 3090 3084 3082 3083 3082 3085 3087 3088 3089 3089
2957 2971 2983 2994 2994 2995 2999 3013 3013 3021 3024 3017 3014 3012 3026 3040 3033 3047 3052 3059 3058 3061 3067 3067 3071 3072 3074 3076 3080 3083 3085 3085 3087 3089 3086 3085 3076 3076 3075 3076 3077 3078 3080 3080 3081
2940 2951 2964 2978 2980 2983 2994 3003 3002 3009 3011 3006 3003 3006 3014 3017 3031 3029 3043 3045 3046 3052 3058 3056 3059 3063 3066 3070 3073 3077 3078 3081 3082 3082 3082 3079 3079 3068 3071 3067 3069 3069 3070 3073 3076
2923 2934 2946 2958 2967 2976 2983 2989 2990 2998 2990 2992 2991 2992 2997 3006 3016 3022 3027 3034 3041 3046 3045 3051 3053 3057 3061 3066 3067 3071 3074 3077 3077 3078 3068 3070 3070 3058 3061 3060 3061 3063 3065 3067 3069
2908 2917 2929 2944 2955 2965 2971 2976 2972 2967 2976 2984 2984 2985 2992 2993 3006 3009 3014 3014 3020 3031 3029 3042 3040 3046 3051 3057 3061 3065 3070 3071 3067 3065 3051 3057 3058 3052 3051 3054 3054 3058 3059 3061 3063
2892 2903 2912 2925 2941 2953 2956 2955 2941 2948 2958 2968 2978 2982 2986 2990 2997 3002 3006 3006 3012 3018 3024 3030 3035 3038 3039 3044 3052 3054 3059 3061 3055 3045 3043 3049 3044 3043 3043 3047 3049 3052 3054 3055 3057
2880 2886 2894 2909 2927 2938 2937 2922 2919 2930 2944 2962 2973 2975 2979 2982 2985 2996 2998 3000 3005 3011 3018 3021 3025 3026 3032 3037 3046 3048 3049 3058 3057 3053 3050 3037 3037 3037 3036 3040 3044 3046 3047 3049 3051
2863 2872 2875 2896 2911 2920 2911 2906 2912 2925 2936 2952 2959 2962 2964 2975 2981 2986 2991 2991 2999 3004 3012 3014 3019 3019 3024 3030 3035 3037 3044 3048 3050 3046 3038 3024 3028 3027 3028 3032 3036 3039 3041 3044 3046
2852 2855 2862 2880 2896 2898 2883 2892 2901 2913 2924 2935 2947 2947 2960 2966 2973 2974 2982 2985 2991 2996 3003 3007 3010 3018 3018 3019 3023 3031 3033 3035 3038 3037 3028 3018 3018 3019 3024 3028 3032 3034 3036 3039 3041
2836 2838 2853 2865 2872 2872 2875 2887 2891 2901 2920 2925 2936 2942 2949 2954 2962 2968 2977 2981 2984 2989 2992 3001 3004 3009 3013 3011 3015 3021 3021 3024 3023 3028 3027 3024 3018 3019 3023 3025 3027 3029 3031 3032 3034
2821 2832 2842 2851 2849 2858 2871 2877 2882 2887 2901 2912 2921 2929 2936 2948 2955 2959 2970 2973 2976 2983 2990 2992 2997 3003 3008 3010 3009 3008 3010 3016 3019 3020 3012 3018 3009 3015 3018 3021 3023 3022 3023 3026 3028
2814 2820 2831 2835 2839 2850 2858 2868 2872 2876 2888 2899 2903 2921 2927 2939 2946 2950 2958 2965 2971 2976 2983 2988 2990 2989 2989 2994 2996 2999 3000 3004 3011 3008 3006 2993 3008 3006 3010 3013 3015 3016 3017 3018 3020
2798 2804 2814 2816 2826 2838 2850 2860 2863 2863 2878 2889 2897 2909 2913 2928 2937 2941 2948 2952 2960 2967 2971 2979 2980 2986 2990 2991 2990 2992 2992 2994 2995 2994 2999 2999 3002 3006 3004 3008 3007 3008 3010 3011 3011
2786 2799 2809 2817 2823 2828 2837 2844 2854 2855 2860 2873 2883 2895 2904 2912 2909 2922 2931 2938 2949 2957 2962 2968 2972 2978 2981 2985 2984 2983 2983 2984 2988 2992 2992 2995 2997 3001 2998 2999 3000 3000 3002 3001 3001
2780 2794 2798 2808 2817 2819 2824 2833 2844 2851 2857 2868 2874 2889 2899 2911 2918 2924 2930 2935 2941 2947 2953 2958 2964 2970 2974 2977 2981 2976 2966 2970 2977 2982 2984 2982 2990 2994 2991 2992 2991 2993 2992 2992 2991
Wind_Speed
37 35 34 33 31 31 29 27 25 23 21 17 14 14 15 12 11 13 15 13 12 11 12 10 9 11 11 13 13 12 10 12 12 8 7 10 8 14 12 8 9 12 13 10 9
40 38 36 35 34 32 33 30 28 25 25 21 17 16 16 16 11 11 17 15 12 9 11 10 9 11 12 13 15 14 12 12 12 10 9 11 9 11 11 9 8 8 8 8 9
43 42 39 38 37 35 34 34 31 29 27 26 22 18 17 17 16 12 15 13 11 10 11 10 9 7 11 13 15 12 17 13 12 13 14 13 12 12 12 13 12 10 10 11 11
45 45 42 40 39 37 36 36 34 32 31 29 25 22 19 17 9 8 14 15 11 12 13 15 13 12 10 13 14 16 15 16 12 17 17 15 14 13 16 18 16 17 20 18 17
46 46 46 43 42 40 38 37 36 35 35 33 29 26 23 22 15 13 16 15 15 15 13 14 17 17 13 11 15 18 14 17 16 17 15 16 16 15 18 19 24 25 26 26 25
48 48 46 45 44 43 42 40 39 37 37 36 33 31 30 27 22 16 15 15 18 22 20 16 17 18 18 17 16 15 15 17 17 15 16 17 17 20 12 17 17 19 23 27 28
51 48 48 47 45 45 44 42 42 39 40 39 38 37 37 28 26 22 18 18 20 21 23 20 19 18 19 17 21 21 22 18 20 16 17 15 17 19 15 16 14 20 21 22 23
55 52 48 48 47 45 46 45 45 43 42 42 42 42 47 30 31 27 23 23 23 23 24 25 22 22 20 20 21 18 16 15 14 15 14 13 11 12 14 14 11 17 19 19 19
53 55 52 48 48 47 47 46 47 47 45 45 46 44 49 38 34 31 31 29 27 27 27 26 26 24 25 22 16 16 18 13 10 13 13 16 9 11 16 19 12 21 20 20 19
55 51 53 50 53 49 48 50 51 49 49 49 49 42 45 18 29 36 34 35 31 30 30 30 30 29 27 20 22 18 17 12 13 10 11 13 15 13 13 15 18 21 22 22 23
58 51 56 45 51 52 54 54 56 52 58 59 57 47 30 22 33 27 27 24 25 25 29 33 26 30 32 30 23 14 14 16 13 13 13 18 23 20 18 17 24 26 26 26 24
73 63 56 56 45 48 56 63 63 48 52 60 58 57 42 31 33 31 33 32 34 32 25 25 33 29 23 22 22 19 18 20 17 16 17 17 23 25 22 23 23 27 28 28 27
76 72 72 61 57 47 57 64 56 52 46 39 52 55 53 46 39 39 38 37 33 32 31 30 18 25 28 27 23 21 21 21 20 15 19 22 31 29 24 25 24 25 27 29 30
77 76 71 64 51 51 46 55 55 49 36 37 39 56 50 43 57 43 34 36 36 31 27 28 27 22 24 23 21 21 20 23 21 16 17 8 12 9 16 22 23 21 23 26 26
73 77 75 68 59 57 54 53 58 49 6 22 33 41 40 54 39 44 47 42 36 34 34 28 30 32 30 29 26 20 18 17 16 21 23 27 19 21 20 20 24 22 22 23 23
69 73 74 67 63 50 46 41 56 30 11 14 26 31 29 38 37 27 41 55 43 38 36 36 19 21 26 23 24 18 17 11 13 16 21 27 25 26 27 24 22 26 25 25 26
60 65 70 66 69 50 42 45 47 19 24 16 23 27 30 32 36 31 42 49 43 38 50 37 42 32 31 21 24 21 17 7 11 11 14 11 17 30 15 12 19 22 27 30 29
56 58 64 73 67 46 45 61 23 39 48 14 23 25 29 25 34 29 31 38 44 37 25 42 27 40 28 36 28 32 29 15 9 14 16 12 12 15 21 24 20 24 29 30 30
51 50 57 72 70 50 54 65 36 54 58 33 24 30 25 28 20 28 32 36 37 37 28 28 28 19 25 30 32 22 36 26 17 17 9 19 13 15 19 19 25 27 29 31 30
51 51 57 64 73 55 61 64 55 50 42 44 32 30 30 34 23 32 29 28 33 38 27 17 10 18 28 24 33 29 17 14 12 6 9 13 21 17 19 24 26 29 30 30 30
48 53 59 58 62 70 51 52 49 67 47 57 43 30 32 38 30 33 19 14 32 32 36 14 11 11 19 23 25 33 29 15 15 16 6 11 9 9 20 20 25 28 29 30 31
51 57 50 50 60 73 61 33 60 64 53 51 45 36 41 41 35 30 29 22 25 36 37 25 12 15 19 16 25 28 32 35 16 10 17 14 12 6 11 19 23 25 27 30 30
55 56 45 44 62 57 79 60 46 64 62 53 42 42 37 36 28 36 29 34 26 29 28 35 16 9 7 11 21 30 30 36 33 21 27 13 6 16 14 16 19 25 29 31 29
56 48 47 46 57 66 64 50 45 55 69 62 55 38 34 38 37 37 35 36 34 33 26 24 23 23 20 15 13 35 32 36 40 32 27 44 25 22 19 19 21 29 28 27 27
60 40 45 44 48 71 55 56 43 43 58 54 43 49 49 35 46 33 43 41 41 40 42 27 27 26 29 26 18 17 31 35 43 48 33 31 32 26 26 23 25 30 28 33 38
55 43 43 43 54 57 63 72 49 46 57 59 50 54 55 50 60 48 44 47 43 44 40 39 28 24 30 28 22 23 25 31 37 38 41 39 30 20 19 30 32 35 36 37 37
58 58 21 39 42 50 69 46 61 54 53 67 65 53 51 47 36 27 35 41 34 36 47 41 34 19 13 22 13 24 38 33 36 36 38 40 31 29 30 34 35 32 35 35 31
Wind_Direction
243 243 243 243 243 249 247 249 251 254 254 255 267 280 292 298 292 286 287 281 281 271 263 249 240 237 233 235 237 234 235 242 241 235 231 212 225 229 208 188 199 187 180 178 165
243 242 245 245 247 245 250 248 249 253 255 253 253 265 281 291 293 288 283 280 271 266 258 240 226 234 234 235 239 226 236 248 237 238 233 243 248 252 225 235 239 230 218 201 185
244 243 240 245 245 247 247 250 248 250 252 254 253 255 266 283 294 288 272 275 253 241 242 234 224 225 226 230 232 244 235 249 252 254 252 263 263 258 241 239 234 233 235 234 229
244 243 243 241 244 245 247 249 249 249 251 252 253 253 259 269 277 277 279 285 256 238 235 242 239 246 238 233 232 243 251 247 254 259 257 264 266 251 245 237 244 244 239 240 241
242 243 244 241 242 243 244 248 249 250 252 253 253 252 253 256 269 264 280 276 259 240 231 246 250 247 239 239 250 251 248 256 257 264 268 267 267 262 249 233 236 242 247 247 246
243 241 240 242 242 242 244 244 248 249 251 253 253 252 250 251 266 264 262 270 258 247 243 240 250 249 246 245 242 251 250 260 260 259 264 269 270 258 262 243 233 240 243 244 247
245 243 241 239 240 242 243 243 245 246 250 251 253 252 249 246 255 255 260 263 261 254 238 237 243 250 250 255 251 251 259 265 265 263 261 259 264 256 229 253 243 240 244 246 250
235 241 240 240 239 239 243 244 246 245 247 250 252 253 253 246 246 251 252 257 260 255 247 233 236 246 251 252 259 259 261 258 257 253 245 246 249 218 240 213 231 248 247 246 249
230 229 237 238 239 238 240 241 243 245 246 248 250 251 256 249 243 244 250 252 250 250 250 234 234 245 251 254 254 249 249 242 240 241 241 243 239 224 236 234 237 231 236 238 242
241 232 225 233 232 233 235 239 240 242 242 243 246 249 247 246 237 238 246 251 247 240 236 238 232 238 241 225 231 245 243 240 238 256 235 239 244 243 243 257 251 251 251 250 252
238 241 237 228 234 225 225 230 233 235 237 240 244 246 241 240 238 229 227 224 220 231 229 232 219 217 242 248 234 240 248 252 255 247 263 258 263 257 253 251 260 259 260 258 256
236 239 239 233 240 234 226 227 234 239 242 242 240 244 237 232 224 224 224 229 230 232 218 220 226 231 233 226 232 236 248 257 266 259 261 270 267 266 261 258 246 254 250 254 256
230 233 241 244 236 235 242 236 231 235 242 247 249 247 241 239 236 228 227 229 231 224 217 223 230 227 229 234 231 233 240 254 260 268 278 282 281 272 251 256 247 246 248 246 248
227 228 231 234 239 236 240 242 230 233 238 246 247 249 236 229 236 218 225 227 221 217 221 233 227 225 219 220 228 237 248 256 258 268 273 239 280 236 258 258 255 248 242 239 238
228 225 225 224 233 236 239 236 230 219 224 246 231 245 242 231 238 238 224 218 219 222 213 224 228 221 222 236 237 252 239 247 254 264 271 258 260 273 226 227 243 240 229 228 232
227 225 223 222 223 230 234 234 220 195 215 233 196 209 200 218 218 221 213 221 234 226 233 229 235 218 232 232 241 242 236 244 249 252 251 253 243 262 243 228 221 224 224 227 227
231 224 223 219 221 222 226 219 194 199 202 214 197 190 196 201 202 205 207 210 207 205 223 229 229 233 234 216 229 208 194 231 232 216 251 256 229 238 244 203 231 231 227 223 227
229 227 224 217 217 212 221 206 205 201 197 192 190 190 189 188 202 201 204 208 212 216 224 222 228 225 226 219 220 206 209 215 251 249 258 190 237 231 234 228 214 221 226 229 232
225 224 224 218 216 202 219 205 200 196 200 198 170 175 185 193 194 198 205 212 214 205 208 210 226 228 218 219 208 204 217 224 257 267 272 238 228 246 237 226 224 221 221 225 231
224 222 220 217 216 205 211 209 205 207 198 194 189 188 182 192 186 192 195 212 211 209 198 200 183 209 206 215 211 215 207 188 201 214 242 238 242 255 204 213 210 216 221 230 236
220 222 215 212 206 213 231 214 206 203 200 188 197 182 194 189 193 190 202 211 201 204 195 197 190 173 190 199 196 200 215 205 206 223 257 270 256 222 211 217 216 214 225 232 240
213 220 220 206 204 214 228 217 207 204 193 197 207 196 196 188 185 189 208 206 201 208 198 202 202 199 205 212 201 215 218 209 194 184 228 262 255 180 171 197 212 227 233 238 244
209 217 216 215 207 211 217 227 213 201 193 190 194 198 198 186 187 201 202 212 207 212 209 207 212 202 219 237 222 216 214 219 225 237 227 215 211 229 228 232 228 227 232 237 243
201 211 211 216 217 206 210 220 214 200 200 195 201 193 188 192 206 206 199 212 211 203 193 207 222 221 236 260 230 217 213 215 217 224 228 233 238 242 242 237 229 228 234 241 258
199 208 210 213 213 206 210 215 216 188 194 193 194 197 195 191 199 204 200 205 206 213 204 217 233 240 246 247 227 226 221 219 218 228 225 247 245 244 247 245 225 228 234 263 280
195 201 210 212 220 208 205 212 218 195 185 188 202 203 206 210 214 201 198 211 216 213 220 227 234 231 238 232 235 233 228 226 228 234 244 247 248 246 228 225 241 245 266 279 285
200 199 192 203 215 218 209 213 215 203 202 210 206 204 199 208 213 208 232 233 223 223 214 213 214 199 223 213 239 257 234 224 230 230 232 237 243 244 247 250 255 263 273 280 284